TimeEST,TemperatureF,Dew PointF,Humidity,Sea Level PressureIn,VisibilityMPH,Wind Direction,Wind SpeedMPH,Gust SpeedMPH,PrecipitationIn,Events,Conditions,WindDirDegrees,DateUTC
12:56 AM,37.9,35.1,89,30.06,10.0,Calm,Calm,-,N/A,,Clear,0,2012-12-28 05:56:00
1:56 AM,37.0,34.0,89,30.08,10.0,Calm,Calm,-,N/A,,Partly Cloudy,0,2012-12-28 06:56:00
2:56 AM,34.0,32.0,92,30.09,10.0,Calm,Calm,-,N/A,,Partly Cloudy,0,2012-12-28 07:56:00
3:56 AM,33.1,32.0,96,30.09,10.0,NNW,3.5,-,N/A,,Clear,330,2012-12-28 08:56:00
4:56 AM,35.1,34.0,96,30.09,10.0,Calm,Calm,-,N/A,,Clear,0,2012-12-28 09:56:00
5:56 AM,35.1,33.1,92,30.11,10.0,NNE,5.8,-,N/A,,Clear,30,2012-12-28 10:56:00
6:56 AM,35.1,32.0,89,30.13,10.0,NNE,5.8,-,N/A,,Scattered Clouds,30,2012-12-28 11:56:00
7:56 AM,36.0,33.1,89,30.15,10.0,NNE,3.5,-,N/A,,Mostly Cloudy,30,2012-12-28 12:56:00
8:56 AM,41.0,36.0,82,30.14,10.0,NE,5.8,-,N/A,,Mostly Cloudy,50,2012-12-28 13:56:00
9:56 AM,46.9,39.0,74,30.16,10.0,ENE,4.6,-,N/A,,Mostly Cloudy,70,2012-12-28 14:56:00
10:56 AM,50.0,39.0,66,30.15,10.0,East,3.5,-,N/A,,Mostly Cloudy,90,2012-12-28 15:56:00
11:56 AM,54.0,39.9,59,30.12,10.0,South,4.6,-,N/A,,Overcast,170,2012-12-28 16:56:00
12:56 PM,54.0,39.9,59,30.08,10.0,Calm,Calm,-,N/A,,Mostly Cloudy,0,2012-12-28 17:56:00
1:56 PM,57.0,42.1,57,30.05,10.0,Calm,Calm,-,N/A,,Mostly Cloudy,0,2012-12-28 18:56:00
2:56 PM,57.0,42.1,57,30.05,10.0,ESE,6.9,-,N/A,,Mostly Cloudy,110,2012-12-28 19:56:00
3:56 PM,55.9,44.1,64,30.05,10.0,East,3.5,-,N/A,,Mostly Cloudy,100,2012-12-28 20:56:00
4:56 PM,53.1,46.0,77,30.04,10.0,ESE,8.1,-,N/A,,Mostly Cloudy,120,2012-12-28 21:56:00
5:56 PM,51.1,46.0,83,30.05,10.0,ESE,4.6,-,N/A,,Mostly Cloudy,110,2012-12-28 22:56:00
6:56 PM,51.1,45.0,80,30.06,10.0,ESE,6.9,-,N/A,,Mostly Cloudy,110,2012-12-28 23:56:00
7:56 PM,50.0,45.0,83,30.04,10.0,East,5.8,-,N/A,,Mostly Cloudy,80,2012-12-29 00:56:00
8:56 PM,48.9,44.1,83,30.02,10.0,East,5.8,-,N/A,,Mostly Cloudy,90,2012-12-29 01:56:00
9:56 PM,48.9,44.1,83,30.00,10.0,East,5.8,-,N/A,,Overcast,80,2012-12-29 02:56:00
10:56 PM,48.9,45.0,86,29.99,10.0,North,3.5,-,N/A,,Overcast,10,2012-12-29 03:56:00
11:56 PM,48.9,45.0,86,29.93,10.0,ENE,4.6,-,N/A,,Mostly Cloudy,60,2012-12-29 04:56:00